Location: Newark
(44.1906°N, 75.9681°W)
Time: 13:54:00
(UTC+00:00)

Envisat - Visible Passes

Search period start: 24 January 2020 00:00
Search period end: 03 February 2020 00:00
Orbit: 764 x 766 km, 98.1° (Epoch: 23 January)

Date Brightness Start Highest point End Pass type
(mag) Time Alt. Az. Time Alt. Az. Time Alt. Az.
24 Jan 6.5 10:15:44 10° ENE 10:16:27 10° E 10:17:09 10° E visible
24 Jan 3.1 11:51:06 10° NNE 11:56:13 85° ESE 12:01:18 10° SSW visible
24 Jan 3.5 23:07:08 10° S 23:12:10 64° W 23:17:14 10° NNW visible
25 Jan 4.6 11:14:34 10° NNE 11:19:21 39° E 11:24:05 10° SSE visible
25 Jan 3.0 22:30:26 10° SSE 22:35:25 60° ENE 22:40:25 10° N visible
26 Jan 5.9 00:11:30 10° SW 00:14:51 17° W 00:18:11 10° NW visible
26 Jan 5.9 10:38:45 10° NE 10:42:16 19° E 10:45:46 10° SE visible
26 Jan 4.6 23:33:04 10° SSW 23:37:45 37° W 23:42:28 10° NNW visible
27 Jan 3.5 11:39:50 10° NNE 11:44:55 68° ESE 11:49:58 10° S visible
27 Jan 3.2 22:55:47 10° S 23:00:52 80° WSW 23:05:59 10° NNW visible
28 Jan 5.0 11:03:28 10° NNE 11:07:59 31° E 11:12:29 10° SSE visible
28 Jan 5.6 23:59:33 10° SW 00:03:26 22° W 00:07:20 10° NW visible
29 Jan 6.2 10:28:02 10° NE 10:30:51 15° E 10:33:39 10° ESE visible
29 Jan 4.2 23:21:32 10° S 23:26:24 46° W 23:31:19 10° NNW visible
30 Jan 3.9 11:28:36 10° NNE 11:33:36 54° E 11:38:34 10° S visible
30 Jan 3.0 22:44:30 10° SSE 22:49:34 82° ENE 22:54:41 10° NNW visible
31 Jan 6.3 00:27:06 10° WSW 00:29:13 12° W 00:31:22 10° WNW visible
31 Jan 5.4 10:52:25 10° NE 10:56:37 25° E 11:00:46 10° SSE visible
31 Jan 5.2 23:47:45 10° SSW 23:52:03 27° W 23:56:21 10° NW visible
01 Feb 6.4 10:17:46 10° ENE 10:19:25 11° E 10:21:03 10° ESE visible
01 Feb 3.7 23:10:05 10° S 23:15:04 59° W 23:20:07 10° NNW visible
02 Feb 4.4 11:17:25 10° NNE 11:22:16 43° E 11:27:04 10° S visible
